Time,TemperatureF,DewpointF,PressureIn,WindDirection,WindDirectionDegrees,WindSpeedMPH,WindSpeedGustMPH,Humidity,HourlyPrecipIn,Conditions,Clouds,dailyrainin,SoftwareType,DateUTC
2013-11-26 00:02:00,78.2,74.0,29.90,ESE,102,0.0,0.0,87,0.00,RA,,0.00,WeatherDisplay:10.37,2013-11-26 06:02:00,
2013-11-26 00:07:00,78.2,74.0,29.90,ESE,102,0.0,0.0,87,0.00,RA,,0.00,WeatherDisplay:10.37,2013-11-26 06:07:00,
2013-11-26 00:12:00,78.2,74.0,29.90,ESE,102,0.0,0.0,87,0.00,CLR,,0.00,WeatherDisplay:10.37,2013-11-26 06:12:00,
2013-11-26 00:17:00,78.1,73.9,29.90,ESE,102,0.0,0.0,87,0.00,CLR,,0.00,WeatherDisplay:10.37,2013-11-26 06:17:00,
2013-11-26 00:22:00,78.1,73.9,29.91,ESE,102,0.0,0.0,87,0.00,CLR,,0.00,WeatherDisplay:10.37,2013-11-26 06:22:00,
2013-11-26 00:27:00,78.1,73.9,29.90,ESE,102,0.0,0.0,87,0.00,CLR,,0.00,WeatherDisplay:10.37,2013-11-26 06:27:00,
2013-11-26 00:32:00,78.1,73.9,29.90,ESE,102,0.0,0.0,87,0.00,CLR,,0.00,WeatherDisplay:10.37,2013-11-26 06:32:00,
2013-11-26 00:37:00,78.0,74.2,29.90,ESE,102,0.0,0.0,88,0.00,CLR,,0.00,WeatherDisplay:10.37,2013-11-26 06:37:00,
2013-11-26 00:42:00,78.0,74.2,29.90,ESE,102,0.0,0.0,88,0.00,CLR,,0.00,WeatherDisplay:10.37,2013-11-26 06:42:00,
2013-11-26 00:47:00,78.0,74.2,29.90,ESE,102,0.0,0.0,88,0.00,CLR,,0.00,WeatherDisplay:10.37,2013-11-26 06:47:00,
2013-11-26 00:52:00,77.9,74.1,29.90,ESE,102,0.0,0.0,88,0.00,CLR,,0.00,WeatherDisplay:10.37,2013-11-26 06:52:00,
2013-11-26 00:57:00,77.9,74.1,29.90,ESE,102,0.0,0.0,88,0.00,CLR,,0.00,WeatherDisplay:10.37,2013-11-26 06:57:00,
2013-11-26 01:02:00,77.9,74.1,29.90,ESE,102,0.0,0.0,88,0.00,CLR,,0.00,WeatherDisplay:10.37,2013-11-26 07:02:00,
2013-11-26 01:07:00,77.9,74.1,29.90,ESE,102,0.0,0.0,88,0.00,CLR,,0.00,WeatherDisplay:10.37,2013-11-26 07:07:00,
2013-11-26 01:12:00,77.9,74.1,29.90,ESE,102,0.0,0.0,88,0.00,CLR,,0.00,WeatherDisplay:10.37,2013-11-26 07:12:00,
2013-11-26 01:17:00,77.9,74.1,29.89,ESE,102,0.0,0.0,88,0.00,CLR,,0.00,WeatherDisplay:10.37,2013-11-26 07:17:00,
2013-11-26 01:22:00,77.9,74.1,29.89,ESE,102,0.0,0.0,88,0.00,CLR,,0.00,WeatherDisplay:10.37,2013-11-26 07:22:00,
2013-11-26 01:27:00,77.8,74.0,29.89,ESE,102,0.0,0.0,88,0.00,CLR,,0.00,WeatherDisplay:10.37,2013-11-26 07:27:00,
2013-11-26 01:32:00,77.9,74.1,29.89,ESE,102,0.0,0.0,88,0.00,CLR,,0.00,WeatherDisplay:10.37,2013-11-26 07:32:00,
2013-11-26 01:37:00,77.8,74.0,29.89,ESE,102,0.0,0.0,88,0.00,CLR,,0.00,WeatherDisplay:10.37,2013-11-26 07:37:00,
2013-11-26 01:43:00,77.8,74.0,29.88,ESE,102,0.0,0.0,88,0.00,CLR,,0.00,WeatherDisplay:10.37,2013-11-26 07:43:00,
2013-11-26 01:48:00,77.9,74.1,29.88,ESE,102,0.0,0.0,88,0.00,CLR,,0.00,WeatherDisplay:10.37,2013-11-26 07:48:00,
2013-11-26 01:53:00,77.8,74.0,29.88,ESE,102,0.0,0.0,88,0.00,CLR,,0.00,WeatherDisplay:10.37,2013-11-26 07:53:00,
2013-11-26 01:58:00,77.8,74.0,29.88,ESE,102,0.0,0.0,88,0.00,CLR,,0.00,WeatherDisplay:10.37,2013-11-26 07:58:00,
2013-11-26 02:03:00,77.8,74.0,29.88,ESE,102,0.0,0.0,88,0.00,CLR,,0.00,WeatherDisplay:10.37,2013-11-26 08:03:00,
2013-11-26 02:08:00,77.8,74.3,29.88,ESE,102,0.0,0.0,89,0.00,CLR,,0.00,WeatherDisplay:10.37,2013-11-26 08:08:00,
2013-11-26 02:13:00,77.8,74.3,29.88,ESE,102,0.0,0.0,89,0.00,CLR,,0.00,WeatherDisplay:10.37,2013-11-26 08:13:00,
2013-11-26 02:18:00,77.7,74.2,29.88,ESE,102,0.0,0.0,89,0.00,CLR,,0.00,WeatherDisplay:10.37,2013-11-26 08:18:00,
2013-11-26 02:23:00,77.6,74.1,29.88,ESE,102,0.0,0.0,89,0.00,CLR,,0.00,WeatherDisplay:10.37,2013-11-26 08:23:00,
2013-11-26 02:28:00,77.6,74.1,29.88,ESE,102,0.0,0.0,89,0.00,CLR,,0.00,WeatherDisplay:10.37,2013-11-26 08:28:00,
2013-11-26 02:33:00,77.6,74.1,29.88,ESE,102,0.0,0.0,89,0.00,CLR,,0.00,WeatherDisplay:10.37,2013-11-26 08:33:00,
2013-11-26 02:38:00,77.5,74.3,29.88,ESE,102,0.0,0.0,90,0.00,CLR,,0.00,WeatherDisplay:10.37,2013-11-26 08:38:00,
2013-11-26 02:43:00,77.5,74.3,29.88,ESE,102,0.0,0.0,90,0.00,CLR,,0.00,WeatherDisplay:10.37,2013-11-26 08:43:00,
2013-11-26 02:48:00,77.4,74.2,29.88,ESE,102,1.1,1.1,90,0.00,CLR,,0.00,WeatherDisplay:10.37,2013-11-26 08:48:00,
2013-11-26 02:53:00,77.2,74.0,29.87,ESE,102,0.0,0.0,90,0.00,CLR,,0.00,WeatherDisplay:10.37,2013-11-26 08:53:00,
2013-11-26 02:58:00,77.2,74.0,29.87,ESE,102,0.0,0.0,90,0.00,CLR,,0.00,WeatherDisplay:10.37,2013-11-26 08:58:00,
2013-11-26 03:03:00,77.2,74.0,29.87,ESE,102,0.0,0.0,90,0.00,CLR,,0.00,WeatherDisplay:10.37,2013-11-26 09:03:00,
2013-11-26 03:08:00,77.2,74.0,29.87,ESE,102,0.0,0.0,90,0.00,CLR,,0.00,WeatherDisplay:10.37,2013-11-26 09:08:00,
2013-11-26 03:13:00,77.2,74.0,29.87,ESE,102,0.0,0.0,90,0.00,CLR,,0.00,WeatherDisplay:10.37,2013-11-26 09:13:00,
2013-11-26 03:18:00,77.1,73.9,29.87,ESE,102,0.0,0.0,90,0.00,CLR,,0.00,WeatherDisplay:10.37,2013-11-26 09:18:00,
2013-11-26 03:23:00,77.0,74.2,29.87,ESE,102,0.0,0.0,91,0.00,CLR,,0.00,WeatherDisplay:10.37,2013-11-26 09:23:00,
2013-11-26 03:28:00,76.8,74.0,29.86,ESE,102,0.0,0.0,91,0.00,CLR,,0.00,WeatherDisplay:10.37,2013-11-26 09:28:00,
2013-11-26 03:33:00,76.8,74.0,29.87,ESE,102,0.0,0.0,91,0.00,CLR,,0.00,WeatherDisplay:10.37,2013-11-26 09:33:00,
2013-11-26 03:38:00,76.7,73.9,29.86,ESE,102,0.0,0.0,91,0.00,CLR,,0.00,WeatherDisplay:10.37,2013-11-26 09:38:00,
2013-11-26 03:43:00,76.7,73.9,29.87,ESE,102,0.0,0.0,91,0.00,CLR,,0.00,WeatherDisplay:10.37,2013-11-26 09:43:00,
2013-11-26 03:48:00,76.6,73.8,29.87,ESE,102,0.0,0.0,91,0.00,CLR,,0.00,WeatherDisplay:10.37,2013-11-26 09:48:00,
2013-11-26 03:53:00,76.6,73.8,29.87,ESE,102,0.0,0.0,91,0.00,CLR,,0.00,WeatherDisplay:10.37,2013-11-26 09:53:00,
2013-11-26 03:58:00,76.4,73.6,29.87,ESE,102,0.0,0.0,91,0.00,CLR,,0.00,WeatherDisplay:10.37,2013-11-26 09:58:00,
2013-11-26 04:03:00,76.4,73.9,29.87,ESE,102,0.0,0.0,92,0.00,CLR,,0.00,WeatherDisplay:10.37,2013-11-26 10:03:00,
2013-11-26 04:08:00,76.3,73.5,29.87,ESE,103,1.1,1.1,91,0.00,CLR,,0.00,WeatherDisplay:10.37,2013-11-26 10:08:00,
2013-11-26 04:13:00,76.3,73.8,29.87,East,98,1.1,1.1,92,0.00,CLR,,0.00,WeatherDisplay:10.37,2013-11-26 10:13:00,
2013-11-26 04:18:00,76.4,73.9,29.87,ENE,61,2.3,2.3,92,0.00,CLR,,0.00,WeatherDisplay:10.37,2013-11-26 10:18:00,
2013-11-26 04:23:00,76.6,74.1,29.87,NE,36,1.1,0.0,92,0.00,CLR,,0.00,WeatherDisplay:10.37,2013-11-26 10:23:00,
2013-11-26 04:28:00,76.8,74.3,29.87,NE,36,1.1,1.1,92,0.00,CLR,,0.00,WeatherDisplay:10.37,2013-11-26 10:28:00,
2013-11-26 04:33:00,76.8,74.3,29.87,NE,36,2.3,2.3,92,0.00,CLR,,0.00,WeatherDisplay:10.37,2013-11-26 10:33:00,
2013-11-26 04:38:00,76.8,74.3,29.87,NE,36,1.1,0.0,92,0.00,CLR,,0.00,WeatherDisplay:10.37,2013-11-26 10:38:00,
2013-11-26 04:43:00,76.7,74.2,29.87,NE,36,0.0,0.0,92,0.00,CLR,,0.00,WeatherDisplay:10.37,2013-11-26 10:43:00,
2013-11-26 04:48:00,76.6,74.1,29.87,NE,36,0.0,0.0,92,0.00,CLR,,0.00,WeatherDisplay:10.37,2013-11-26 10:48:00,
2013-11-26 04:53:00,76.5,74.0,29.87,NE,36,0.0,0.0,92,0.00,CLR,,0.00,WeatherDisplay:10.37,2013-11-26 10:53:00,
2013-11-26 04:58:00,76.5,74.0,29.87,NE,36,0.0,0.0,92,0.00,CLR,,0.00,WeatherDisplay:10.37,2013-11-26 10:58:00,
2013-11-26 05:03:00,76.4,74.2,29.88,NE,36,1.1,0.0,93,0.00,CLR,,0.00,WeatherDisplay:10.37,2013-11-26 11:03:00,
2013-11-26 05:08:00,76.4,74.2,29.87,NE,36,1.1,1.1,93,0.00,CLR,,0.00,WeatherDisplay:10.37,2013-11-26 11:08:00,
2013-11-26 05:13:00,76.3,74.1,29.87,NE,36,2.3,2.3,93,0.00,CLR,,0.00,WeatherDisplay:10.37,2013-11-26 11:13:00,
2013-11-26 05:18:00,76.3,74.1,29.87,NE,36,2.3,2.3,93,0.00,CLR,,0.00,WeatherDisplay:10.37,2013-11-26 11:18:00,
2013-11-26 05:23:00,76.2,74.0,29.87,NE,36,0.0,0.0,93,0.00,CLR,,0.00,WeatherDisplay:10.37,2013-11-26 11:23:00,
2013-11-26 05:28:00,76.2,74.0,29.88,NNE,31,2.3,2.3,93,0.00,CLR,,0.00,WeatherDisplay:10.37,2013-11-26 11:28:00,
2013-11-26 05:33:00,76.2,74.0,29.88,NNE,31,1.1,1.1,93,0.00,CLR,,0.00,WeatherDisplay:10.37,2013-11-26 11:33:00,
2013-11-26 05:38:00,76.2,74.0,29.88,NNE,31,1.1,1.1,93,0.00,CLR,,0.00,WeatherDisplay:10.37,2013-11-26 11:38:00,
2013-11-26 05:43:00,76.2,74.0,29.88,NNE,31,2.3,2.3,93,0.00,CLR,,0.00,WeatherDisplay:10.37,2013-11-26 11:43:00,
2013-11-26 05:48:00,76.2,74.0,29.88,NNE,31,2.3,2.3,93,0.00,CLR,,0.00,WeatherDisplay:10.37,2013-11-26 11:48:00,
2013-11-26 05:54:00,76.2,74.0,29.88,NNE,31,2.3,2.3,93,0.00,CLR,,0.00,WeatherDisplay:10.37,2013-11-26 11:54:00,
2013-11-26 05:59:00,76.2,74.0,29.89,NNE,31,1.1,1.1,93,0.00,CLR,,0.00,WeatherDisplay:10.37,2013-11-26 11:59:00,
2013-11-26 06:04:00,76.2,74.0,29.89,NNE,31,1.1,1.1,93,0.00,CLR,,0.00,WeatherDisplay:10.37,2013-11-26 12:04:00,
2013-11-26 06:09:00,76.1,73.9,29.89,NNE,31,1.1,1.1,93,0.00,CLR,,0.00,WeatherDisplay:10.37,2013-11-26 12:09:00,
2013-11-26 06:14:00,76.2,74.0,29.89,NNE,27,1.1,1.1,93,0.00,CLR,,0.00,WeatherDisplay:10.37,2013-11-26 12:14:00,
2013-11-26 06:19:00,76.3,74.4,29.89,NW,318,3.5,3.5,94,0.00,CLR,,0.00,WeatherDisplay:10.37,2013-11-26 12:19:00,
2013-11-26 06:24:00,76.4,74.5,29.89,NW,312,3.5,3.5,94,0.00,CLR,,0.00,WeatherDisplay:10.37,2013-11-26 12:24:00,
2013-11-26 06:29:00,76.4,74.5,29.89,NW,312,3.5,3.5,94,0.00,CLR,,0.00,WeatherDisplay:10.37,2013-11-26 12:29:00,
2013-11-26 06:34:00,76.3,74.4,29.90,NW,312,1.1,1.1,94,0.00,CLR,,0.00,WeatherDisplay:10.37,2013-11-26 12:34:00,
2013-11-26 06:39:00,76.2,74.0,29.90,NW,311,2.3,2.3,93,0.00,CLR,,0.00,WeatherDisplay:10.37,2013-11-26 12:39:00,
2013-11-26 06:44:00,76.3,74.4,29.90,NW,310,3.5,3.5,94,0.00,CLR,,0.00,WeatherDisplay:10.37,2013-11-26 12:44:00,
2013-11-26 06:49:00,76.4,74.5,29.90,NW,310,3.5,3.5,94,0.00,CLR,,0.00,WeatherDisplay:10.37,2013-11-26 12:49:00,
2013-11-26 06:54:00,76.5,74.6,29.90,NW,307,3.5,3.5,94,0.00,CLR,,0.00,WeatherDisplay:10.37,2013-11-26 12:54:00,
2013-11-26 06:59:00,76.5,74.6,29.91,NW,310,2.3,2.3,94,0.00,CLR,,0.00,WeatherDisplay:10.37,2013-11-26 12:59:00,
2013-11-26 07:04:00,76.5,74.6,29.91,NW,307,3.5,3.5,94,0.00,CLR,,0.00,WeatherDisplay:10.37,2013-11-26 13:04:00,
2013-11-26 07:09:00,76.6,74.7,29.91,NW,307,3.5,3.5,94,0.00,CLR,,0.00,WeatherDisplay:10.37,2013-11-26 13:09:00,
2013-11-26 07:14:00,76.6,74.7,29.91,WNW,302,3.5,3.5,94,0.00,CLR,,0.00,WeatherDisplay:10.37,2013-11-26 13:14:00,
2013-11-26 07:19:00,76.6,74.7,29.92,NW,305,3.5,3.5,94,0.00,CLR,,0.00,WeatherDisplay:10.37,2013-11-26 13:19:00,
2013-11-26 07:24:00,76.7,74.8,29.92,NW,307,3.5,3.5,94,0.00,CLR,,0.00,WeatherDisplay:10.37,2013-11-26 13:24:00,
2013-11-26 07:29:00,76.9,75.0,29.92,NW,307,3.5,3.5,94,0.00,CLR,,0.00,WeatherDisplay:10.37,2013-11-26 13:29:00,
2013-11-26 07:34:00,77.1,75.2,29.92,NW,307,3.5,3.5,94,0.00,CLR,,0.00,WeatherDisplay:10.37,2013-11-26 13:34:00,
2013-11-26 07:39:00,77.4,75.5,29.92,NW,306,3.5,3.5,94,0.00,CLR,,0.00,WeatherDisplay:10.37,2013-11-26 13:39:00,
2013-11-26 07:44:00,77.7,75.8,29.92,WNW,303,4.6,4.6,94,0.00,CLR,,0.00,WeatherDisplay:10.37,2013-11-26 13:44:00,
2013-11-26 07:49:00,77.9,76.0,29.92,NW,314,6.9,6.9,94,0.00,CLR,,0.00,WeatherDisplay:10.37,2013-11-26 13:49:00,
2013-11-26 07:54:00,78.0,76.1,29.93,NW,317,4.6,4.6,94,0.00,CLR,,0.00,WeatherDisplay:10.37,2013-11-26 13:54:00,
2013-11-26 07:59:00,78.3,76.4,29.93,NW,318,3.5,3.5,94,0.00,CLR,,0.00,WeatherDisplay:10.37,2013-11-26 13:59:00,
2013-11-26 08:04:00,78.5,76.6,29.93,NW,317,3.5,3.5,94,0.00,CLR,,0.00,WeatherDisplay:10.37,2013-11-26 14:04:00,
2013-11-26 08:09:00,78.6,76.4,29.93,NW,312,4.6,4.6,93,0.00,CLR,,0.00,WeatherDisplay:10.37,2013-11-26 14:09:00,
2013-11-26 08:14:00,78.8,76.6,29.93,NW,308,4.6,4.6,93,0.00,CLR,,0.00,WeatherDisplay:10.37,2013-11-26 14:14:00,
2013-11-26 08:19:00,79.1,76.9,29.93,NW,308,5.0,5.0,93,0.00,CLR,,0.00,WeatherDisplay:10.37,2013-11-26 14:19:00,
2013-11-26 08:24:00,79.3,77.1,29.93,WNW,299,3.5,3.5,93,0.00,CLR,,0.00,WeatherDisplay:10.37,2013-11-26 14:24:00,
2013-11-26 08:29:00,79.4,76.9,29.93,NW,313,4.6,4.6,92,0.00,CLR,,0.00,WeatherDisplay:10.37,2013-11-26 14:29:00,
2013-11-26 08:34:00,79.6,77.1,29.93,WNW,301,3.5,3.5,92,0.00,CLR,,0.00,WeatherDisplay:10.37,2013-11-26 14:34:00,
2013-11-26 08:39:00,79.8,77.3,29.94,West,278,5.0,5.0,92,0.00,CLR,,0.00,WeatherDisplay:10.37,2013-11-26 14:39:00,
2013-11-26 08:44:00,79.9,77.0,29.94,NW,314,6.9,6.9,91,0.00,CLR,,0.00,WeatherDisplay:10.37,2013-11-26 14:44:00,
2013-11-26 08:49:00,80.0,77.1,29.94,NW,308,4.6,4.6,91,0.00,CLR,,0.00,WeatherDisplay:10.37,2013-11-26 14:49:00,
2013-11-26 08:54:00,80.0,77.1,29.94,West,279,5.8,5.8,91,0.00,CLR,,0.00,WeatherDisplay:10.37,2013-11-26 14:54:00,
2013-11-26 08:59:00,79.9,76.7,29.94,NW,318,5.8,5.8,90,0.00,CLR,,0.00,WeatherDisplay:10.37,2013-11-26 14:59:00,
2013-11-26 09:04:00,79.8,76.6,29.94,NW,316,5.8,5.8,90,0.00,CLR,,0.00,WeatherDisplay:10.37,2013-11-26 15:04:00,
2013-11-26 09:09:00,79.9,76.7,29.94,West,273,4.6,4.6,90,0.00,CLR,,0.00,WeatherDisplay:10.37,2013-11-26 15:09:00,
2013-11-26 09:14:00,80.1,76.9,29.94,NW,312,6.9,6.9,90,0.00,CLR,,0.00,WeatherDisplay:10.37,2013-11-26 15:14:00,
2013-11-26 09:19:00,80.3,77.1,29.94,NW,304,7.0,7.0,90,0.00,CLR,,0.00,WeatherDisplay:10.37,2013-11-26 15:19:00,
2013-11-26 09:24:00,80.3,77.1,29.94,NW,308,3.5,3.5,90,0.00,CLR,,0.00,WeatherDisplay:10.37,2013-11-26 15:24:00,
2013-11-26 09:29:00,80.6,77.4,29.94,West,279,6.9,6.9,90,0.00,CLR,,0.00,WeatherDisplay:10.37,2013-11-26 15:29:00,
2013-11-26 09:34:00,80.7,77.2,29.94,West,279,3.5,3.5,89,0.00,CLR,,0.00,WeatherDisplay:10.37,2013-11-26 15:34:00,
2013-11-26 09:39:00,80.9,77.4,29.94,West,269,6.9,6.9,89,0.00,CLR,,0.00,WeatherDisplay:10.37,2013-11-26 15:39:00,
2013-11-26 09:44:00,80.9,77.4,29.94,NW,318,6.9,6.9,89,0.00,CLR,,0.00,WeatherDisplay:10.37,2013-11-26 15:44:00,
2013-11-26 09:49:00,81.1,77.5,29.94,WNW,302,3.5,3.5,89,0.00,CLR,,0.00,WeatherDisplay:10.37,2013-11-26 15:49:00,
2013-11-26 09:54:00,81.3,77.4,29.94,NW,310,8.1,8.1,88,0.00,CLR,,0.00,WeatherDisplay:10.37,2013-11-26 15:54:00,
2013-11-26 09:59:00,81.4,77.5,29.94,NW,316,4.0,4.0,88,0.00,CLR,,0.00,WeatherDisplay:10.37,2013-11-26 15:59:00,
2013-11-26 10:04:00,81.7,77.8,29.94,NW,317,4.0,4.0,88,0.00,CLR,,0.00,WeatherDisplay:10.37,2013-11-26 16:04:00,
2013-11-26 10:09:00,81.8,77.5,29.94,WNW,297,4.0,4.0,87,0.00,CLR,,0.00,WeatherDisplay:10.37,2013-11-26 16:09:00,
2013-11-26 10:14:00,82.3,78.0,29.93,NW,316,5.8,5.8,87,0.00,CLR,,0.00,WeatherDisplay:10.37,2013-11-26 16:14:00,
2013-11-26 10:19:00,82.4,77.8,29.93,WNW,297,4.6,4.6,86,0.00,CLR,,0.00,WeatherDisplay:10.37,2013-11-26 16:19:00,
2013-11-26 10:24:00,82.3,77.3,29.92,NW,310,6.9,6.9,85,0.00,CLR,,0.00,WeatherDisplay:10.37,2013-11-26 16:24:00,
2013-11-26 10:29:00,82.4,77.4,29.93,NNW,327,5.8,5.8,85,0.00,CLR,,0.00,WeatherDisplay:10.37,2013-11-26 16:29:00,
2013-11-26 10:34:00,82.8,77.8,29.93,NNW,345,5.8,5.8,85,0.00,CLR,,0.00,WeatherDisplay:10.37,2013-11-26 16:34:00,
2013-11-26 10:39:00,82.9,77.6,29.92,NNW,332,5.8,5.8,84,0.00,CLR,,0.00,WeatherDisplay:10.37,2013-11-26 16:39:00,
2013-11-26 10:44:00,83.0,77.7,29.92,NNW,331,4.6,4.6,84,0.00,CLR,,0.00,WeatherDisplay:10.37,2013-11-26 16:44:00,
2013-11-26 10:49:00,83.3,78.0,29.92,NNW,330,4.6,4.6,84,0.00,CLR,,0.00,WeatherDisplay:10.37,2013-11-26 16:49:00,
2013-11-26 10:54:00,83.8,78.4,29.92,NNW,334,3.0,3.0,84,0.00,CLR,,0.00,WeatherDisplay:10.37,2013-11-26 16:54:00,
2013-11-26 10:59:00,83.8,78.1,29.92,NNW,327,4.6,4.6,83,0.00,CLR,,0.00,WeatherDisplay:10.37,2013-11-26 16:59:00,
2013-11-26 11:04:00,84.0,77.9,29.91,NW,312,8.1,8.1,82,0.00,CLR,,0.00,WeatherDisplay:10.37,2013-11-26 17:04:00,
2013-11-26 11:09:00,84.3,78.2,29.91,NNW,342,4.0,4.0,82,0.00,CLR,,0.00,WeatherDisplay:10.37,2013-11-26 17:09:00,
2013-11-26 11:14:00,84.3,77.8,29.91,NNW,328,4.6,4.6,81,0.00,CLR,,0.00,WeatherDisplay:10.37,2013-11-26 17:14:00,
2013-11-26 11:19:00,84.4,77.6,29.91,North,354,4.0,4.0,80,0.00,CLR,,0.00,WeatherDisplay:10.37,2013-11-26 17:19:00,
2013-11-26 11:24:00,84.3,77.5,29.90,North,357,3.5,3.5,80,0.00,CLR,,0.00,WeatherDisplay:10.37,2013-11-26 17:24:00,
2013-11-26 11:29:00,84.3,77.5,29.90,NNW,341,3.5,3.5,80,0.00,CLR,,0.00,WeatherDisplay:10.37,2013-11-26 17:29:00,
2013-11-26 11:34:00,84.3,77.1,29.90,NNW,343,3.5,3.5,79,0.00,CLR,,0.00,WeatherDisplay:10.37,2013-11-26 17:34:00,
2013-11-26 11:39:00,84.6,77.7,29.90,NNW,340,3.5,3.5,80,0.00,CLR,,0.00,WeatherDisplay:10.37,2013-11-26 17:39:00,
2013-11-26 11:44:00,84.9,77.7,29.90,NNW,333,3.5,3.5,79,0.00,CLR,,0.00,WeatherDisplay:10.37,2013-11-26 17:44:00,
2013-11-26 11:49:00,85.0,77.8,29.89,NNW,334,3.5,3.5,79,0.00,CLR,,0.00,WeatherDisplay:10.37,2013-11-26 17:49:00,
2013-11-26 11:54:00,84.9,77.3,29.89,NNW,329,3.5,3.5,78,0.00,CLR,,0.00,WeatherDisplay:10.37,2013-11-26 17:54:00,
2013-11-26 11:59:00,85.0,77.4,29.89,NNW,336,3.5,3.5,78,0.00,CLR,,0.00,WeatherDisplay:10.37,2013-11-26 17:59:00,
2013-11-26 12:04:00,85.4,77.4,29.89,NNW,329,3.5,3.5,77,0.00,CLR,,0.00,WeatherDisplay:10.37,2013-11-26 18:04:00,
2013-11-26 12:09:00,85.6,77.6,29.89,NW,317,3.5,3.5,77,0.00,CLR,,0.00,WeatherDisplay:10.37,2013-11-26 18:09:00,
2013-11-26 12:14:00,85.7,77.7,29.88,NW,318,3.5,3.5,77,0.00,CLR,,0.00,WeatherDisplay:10.37,2013-11-26 18:14:00,
2013-11-26 12:19:00,85.7,77.3,29.88,NW,321,3.5,3.5,76,0.00,CLR,,0.00,WeatherDisplay:10.37,2013-11-26 18:19:00,
2013-11-26 12:24:00,85.8,77.4,29.88,NNW,331,3.5,3.5,76,0.00,CLR,,0.00,WeatherDisplay:10.37,2013-11-26 18:24:00,
2013-11-26 12:29:00,85.6,77.2,29.88,NNW,331,3.5,3.5,76,0.00,CLR,,0.00,WeatherDisplay:10.37,2013-11-26 18:29:00,
2013-11-26 12:34:00,85.4,77.0,29.88,NNW,336,2.3,2.3,76,0.00,CLR,,0.00,WeatherDisplay:10.37,2013-11-26 18:34:00,
2013-11-26 12:39:00,85.5,77.1,29.87,NNW,340,4.0,4.0,76,0.00,CLR,,0.00,WeatherDisplay:10.37,2013-11-26 18:39:00,
2013-11-26 12:44:00,85.6,76.8,29.87,NNW,339,3.5,3.5,75,0.00,CLR,,0.00,WeatherDisplay:10.37,2013-11-26 18:44:00,
2013-11-26 12:49:00,85.7,76.9,29.87,NNW,337,3.0,3.0,75,0.00,CLR,,0.00,WeatherDisplay:10.37,2013-11-26 18:49:00,
2013-11-26 12:54:00,85.7,76.9,29.87,NNW,333,3.5,3.5,75,0.00,CLR,,0.00,WeatherDisplay:10.37,2013-11-26 18:54:00,
2013-11-26 13:00:00,85.6,76.8,29.87,NNW,333,2.3,2.3,75,0.00,CLR,,0.00,WeatherDisplay:10.37,2013-11-26 19:00:00,
2013-11-26 13:05:00,85.2,76.4,29.87,NNW,333,0.0,0.2,75,0.00,CLR,,0.00,WeatherDisplay:10.37,2013-11-26 19:05:00,
2013-11-26 13:10:00,84.7,76.3,29.87,NNW,333,0.0,0.0,76,0.00,CLR,,0.00,WeatherDisplay:10.37,2013-11-26 19:10:00,
2013-11-26 13:15:00,84.2,75.8,29.86,NNW,333,1.1,1.1,76,0.00,CLR,,0.00,WeatherDisplay:10.37,2013-11-26 19:15:00,
2013-11-26 13:20:00,84.1,76.1,29.86,NNW,333,1.1,1.1,77,0.00,CLR,,0.00,WeatherDisplay:10.37,2013-11-26 19:20:00,
2013-11-26 13:25:00,82.7,75.1,29.86,NNW,336,0.0,0.0,78,0.00,CLR,,0.00,WeatherDisplay:10.37,2013-11-26 19:25:00,
2013-11-26 13:30:00,82.2,75.4,29.86,NNW,337,0.0,0.6,80,0.00,CLR,,0.00,WeatherDisplay:10.37,2013-11-26 19:30:00,
2013-11-26 13:35:00,81.9,75.1,29.86,NNW,341,1.0,3.0,80,0.00,CLR,,0.00,WeatherDisplay:10.37,2013-11-26 19:35:00,
2013-11-26 13:40:00,81.3,74.9,29.86,NE,50,2.3,2.3,81,0.00,CLR,,0.00,WeatherDisplay:10.37,2013-11-26 19:40:00,
2013-11-26 13:45:00,81.2,75.2,29.85,NE,52,2.0,3.0,82,0.00,CLR,,0.00,WeatherDisplay:10.37,2013-11-26 19:45:00,
2013-11-26 13:50:00,81.4,75.4,29.85,NE,56,0.0,2.0,82,0.00,CLR,,0.00,WeatherDisplay:10.37,2013-11-26 19:50:00,
2013-11-26 13:55:00,81.4,75.0,29.85,NE,56,2.0,3.0,81,0.00,CLR,,0.00,WeatherDisplay:10.37,2013-11-26 19:55:00,
2013-11-26 14:00:00,81.2,74.9,29.85,NE,56,0.0,3.0,81,0.00,CLR,,0.00,WeatherDisplay:10.37,2013-11-26 20:00:00,
2013-11-26 14:05:00,81.3,74.9,29.85,NE,56,2.0,3.0,81,0.00,CLR,,0.00,WeatherDisplay:10.37,2013-11-26 20:05:00,
2013-11-26 14:10:00,81.2,74.8,29.85,NE,56,1.0,3.0,81,0.00,CLR,,0.00,WeatherDisplay:10.37,2013-11-26 20:10:00,
2013-11-26 14:15:00,81.2,75.2,29.85,ENE,57,2.0,3.0,82,0.00,CLR,,0.00,WeatherDisplay:10.37,2013-11-26 20:15:00,
2013-11-26 14:20:00,81.5,75.5,29.85,ENE,58,3.0,3.0,82,0.00,CLR,,0.00,WeatherDisplay:10.37,2013-11-26 20:20:00,
2013-11-26 14:25:00,81.4,75.4,29.85,ENE,58,3.0,3.0,82,0.00,CLR,,0.00,WeatherDisplay:10.37,2013-11-26 20:25:00,
2013-11-26 14:30:00,81.4,75.0,29.85,ENE,58,2.3,2.3,81,0.00,CLR,,0.00,WeatherDisplay:10.37,2013-11-26 20:30:00,
2013-11-26 14:35:00,81.5,75.1,29.85,ENE,58,1.0,3.0,81,0.00,CLR,,0.00,WeatherDisplay:10.37,2013-11-26 20:35:00,
2013-11-26 14:40:00,81.4,75.0,29.85,ENE,58,2.3,2.3,81,0.00,CLR,,0.00,WeatherDisplay:10.37,2013-11-26 20:40:00,
2013-11-26 14:45:00,81.4,75.0,29.85,ENE,58,2.0,3.0,81,0.00,CLR,,0.00,WeatherDisplay:10.37,2013-11-26 20:45:00,
2013-11-26 14:50:00,81.4,75.0,29.84,ENE,58,1.0,2.0,81,0.00,CLR,,0.00,WeatherDisplay:10.37,2013-11-26 20:50:00,
2013-11-26 14:55:00,81.5,75.1,29.84,ENE,60,2.3,2.3,81,0.00,CLR,,0.00,WeatherDisplay:10.37,2013-11-26 20:55:00,
2013-11-26 15:00:00,81.6,75.2,29.84,ENE,61,3.5,3.5,81,0.00,CLR,,0.00,WeatherDisplay:10.37,2013-11-26 21:00:00,
2013-11-26 15:05:00,81.7,75.3,29.84,ENE,61,1.0,3.0,81,0.00,CLR,,0.00,WeatherDisplay:10.37,2013-11-26 21:05:00,
2013-11-26 15:10:00,81.6,74.8,29.84,ENE,63,2.0,5.0,80,0.00,CLR,,0.00,WeatherDisplay:10.37,2013-11-26 21:10:00,
2013-11-26 15:15:00,81.7,74.9,29.84,ENE,64,5.0,6.0,80,0.00,CLR,,0.00,WeatherDisplay:10.37,2013-11-26 21:15:00,
2013-11-26 15:20:00,81.9,75.5,29.84,ENE,67,2.0,5.0,81,0.00,CLR,,0.00,WeatherDisplay:10.37,2013-11-26 21:20:00,
2013-11-26 15:25:00,81.8,75.0,29.84,ENE,67,3.0,6.0,80,0.00,CLR,,0.00,WeatherDisplay:10.37,2013-11-26 21:25:00,
2013-11-26 15:30:00,81.8,75.4,29.85,ENE,64,3.0,6.0,81,0.00,CLR,,0.00,WeatherDisplay:10.37,2013-11-26 21:30:00,
2013-11-26 15:35:00,81.8,75.0,29.85,ENE,69,4.6,4.6,80,0.00,CLR,,0.00,WeatherDisplay:10.37,2013-11-26 21:35:00,
2013-11-26 15:40:00,81.7,74.5,29.84,ENE,72,5.8,5.8,79,0.00,CLR,,0.00,WeatherDisplay:10.37,2013-11-26 21:40:00,
2013-11-26 15:45:00,81.9,75.1,29.84,ENE,71,3.0,6.0,80,0.00,CLR,,0.00,WeatherDisplay:10.37,2013-11-26 21:45:00,
2013-11-26 15:50:00,81.8,75.0,29.84,ENE,65,4.6,4.6,80,0.00,CLR,,0.00,WeatherDisplay:10.37,2013-11-26 21:50:00,
2013-11-26 15:55:00,81.9,75.5,29.84,ENE,70,4.0,4.0,81,0.00,CLR,,0.00,WeatherDisplay:10.37,2013-11-26 21:55:00,
2013-11-26 16:00:00,81.9,75.5,29.85,ENE,71,4.6,4.6,81,0.00,CLR,,0.00,WeatherDisplay:10.37,2013-11-26 22:00:00,
2013-11-26 16:05:00,81.7,74.9,29.85,ENE,69,3.5,3.5,80,0.00,CLR,,0.00,WeatherDisplay:10.37,2013-11-26 22:05:00,
2013-11-26 16:10:00,81.9,75.1,29.85,ENE,68,2.0,5.0,80,0.00,CLR,,0.00,WeatherDisplay:10.37,2013-11-26 22:10:00,
2013-11-26 16:15:00,81.7,74.9,29.85,ENE,65,5.8,5.8,80,0.00,CLR,,0.00,WeatherDisplay:10.37,2013-11-26 22:15:00,
2013-11-26 16:20:00,81.8,75.4,29.85,ENE,65,2.0,4.0,81,0.00,CLR,,0.00,WeatherDisplay:10.37,2013-11-26 22:20:00,
2013-11-26 16:25:00,81.8,75.0,29.85,ENE,63,3.0,6.0,80,0.00,CLR,,0.00,WeatherDisplay:10.37,2013-11-26 22:25:00,
2013-11-26 16:30:00,81.8,75.0,29.85,NE,53,3.5,3.5,80,0.00,CLR,,0.00,WeatherDisplay:10.37,2013-11-26 22:30:00,
2013-11-26 16:35:00,81.8,75.0,29.86,NE,52,2.0,5.0,80,0.00,CLR,,0.00,WeatherDisplay:10.37,2013-11-26 22:35:00,
2013-11-26 16:40:00,81.8,75.0,29.86,NE,54,1.0,5.0,80,0.00,CLR,,0.00,WeatherDisplay:10.37,2013-11-26 22:40:00,
2013-11-26 16:45:00,81.8,75.0,29.86,ENE,63,4.6,4.6,80,0.00,CLR,,0.00,WeatherDisplay:10.37,2013-11-26 22:45:00,
2013-11-26 16:50:00,81.8,75.4,29.86,ENE,63,2.0,4.0,81,0.00,CLR,,0.00,WeatherDisplay:10.37,2013-11-26 22:50:00,
2013-11-26 16:55:00,81.7,74.9,29.86,ENE,65,3.5,3.5,80,0.00,CLR,,0.00,WeatherDisplay:10.37,2013-11-26 22:55:00,
2013-11-26 17:00:00,81.7,74.9,29.86,ENE,63,3.5,3.5,80,0.00,CLR,,0.00,WeatherDisplay:10.37,2013-11-26 23:00:00,
2013-11-26 17:05:00,81.8,75.1,29.86,ENE,65,3.0,5.0,80,0.00,CLR,,0.00,WeatherDisplay:10.37,2013-11-26 23:05:00,
2013-11-26 17:10:00,81.9,75.1,29.87,ENE,69,3.5,3.5,80,0.00,CLR,,0.00,WeatherDisplay:10.37,2013-11-26 23:10:00,
2013-11-26 17:15:00,81.9,75.1,29.87,ENE,69,0.0,3.0,80,0.00,CLR,,0.00,WeatherDisplay:10.37,2013-11-26 23:15:00,
2013-11-26 17:20:00,81.8,74.6,29.87,ENE,69,1.0,2.0,79,0.00,CLR,,0.00,WeatherDisplay:10.37,2013-11-26 23:20:00,
2013-11-26 17:25:00,81.8,74.6,29.88,ENE,69,0.0,0.0,79,0.00,CLR,,0.00,WeatherDisplay:10.37,2013-11-26 23:25:00,
2013-11-26 17:30:00,81.7,74.5,29.88,ENE,69,0.0,0.0,79,0.00,CLR,,0.00,WeatherDisplay:10.37,2013-11-26 23:30:00,
2013-11-26 17:35:00,81.6,74.5,29.88,ENE,69,0.0,0.0,79,0.00,CLR,,0.00,WeatherDisplay:10.37,2013-11-26 23:35:00,
2013-11-26 17:40:00,81.4,74.3,29.88,ENE,69,0.0,0.0,79,0.00,CLR,,0.00,WeatherDisplay:10.37,2013-11-26 23:40:00,
2013-11-26 17:45:00,81.4,74.3,29.88,ENE,69,0.0,0.0,79,0.00,CLR,,0.00,WeatherDisplay:10.37,2013-11-26 23:45:00,
2013-11-26 17:50:00,81.3,74.2,29.89,ENE,69,0.0,0.0,79,0.00,CLR,,0.00,WeatherDisplay:10.37,2013-11-26 23:50:00,
2013-11-26 17:55:00,81.2,74.1,29.89,ENE,69,0.0,0.0,79,0.00,CLR,,0.00,WeatherDisplay:10.37,2013-11-26 23:55:00,
2013-11-26 18:00:00,81.2,74.4,29.89,ENE,69,0.0,1.0,80,0.00,CLR,,0.00,WeatherDisplay:10.37,2013-11-27 00:00:00,
2013-11-26 18:05:00,81.1,74.3,29.89,ENE,69,0.0,0.0,80,0.00,CLR,,0.00,WeatherDisplay:10.37,2013-11-27 00:05:00,
2013-11-26 18:10:00,81.1,74.3,29.89,ENE,69,0.0,1.0,80,0.00,CLR,,0.00,WeatherDisplay:10.37,2013-11-27 00:10:00,
2013-11-26 18:15:00,81.1,74.3,29.90,ENE,69,2.3,2.3,80,0.00,CLR,,0.00,WeatherDisplay:10.37,2013-11-27 00:15:00,
2013-11-26 18:20:00,81.2,75.2,29.90,NW,310,15.0,15.0,82,0.00,CLR,,0.00,WeatherDisplay:10.37,2013-11-27 00:20:00,
2013-11-26 18:25:00,80.5,74.5,29.89,WNW,292,25.3,25.3,82,0.00,CLR,,0.00,WeatherDisplay:10.37,2013-11-27 00:25:00,
2013-11-26 18:30:00,79.3,74.0,29.90,WSW,250,19.0,19.0,84,0.01,RA,,0.01,WeatherDisplay:10.37,2013-11-27 00:30:00,
2013-11-26 18:35:00,78.5,73.6,29.91,West,273,11.5,11.5,85,0.20,RA,,0.20,WeatherDisplay:10.37,2013-11-27 00:35:00,
2013-11-26 18:40:00,77.6,73.1,29.91,WSW,241,8.1,8.1,86,0.37,RA,,0.37,WeatherDisplay:10.37,2013-11-27 00:40:00,
2013-11-26 18:45:00,77.1,72.9,29.91,WSW,243,4.6,4.6,87,0.47,RA,,0.48,WeatherDisplay:10.37,2013-11-27 00:45:00,
2013-11-26 18:50:00,76.7,72.5,29.91,WSW,258,3.5,3.5,87,0.53,RA,,0.53,WeatherDisplay:10.37,2013-11-27 00:50:00,
2013-11-26 18:55:00,76.5,72.7,29.92,West,277,3.5,3.5,88,0.57,RA,,0.57,WeatherDisplay:10.37,2013-11-27 00:55:00,
2013-11-26 19:00:00,76.5,73.0,29.92,West,267,4.0,4.0,89,0.57,RA,,0.57,WeatherDisplay:10.37,2013-11-27 01:00:00,
2013-11-26 19:05:00,76.6,73.1,29.93,West,277,2.3,2.3,89,0.58,RA,,0.58,WeatherDisplay:10.37,2013-11-27 01:05:00,
2013-11-26 19:10:00,76.6,73.1,29.93,West,277,1.1,1.1,89,0.58,RA,,0.58,WeatherDisplay:10.37,2013-11-27 01:10:00,
2013-11-26 19:15:00,76.8,73.6,29.93,NW,311,4.6,4.6,90,0.58,CLR,,0.58,WeatherDisplay:10.37,2013-11-27 01:15:00,
2013-11-26 19:20:00,76.8,73.6,29.93,NW,317,5.8,5.8,90,0.59,RA,,0.59,WeatherDisplay:10.37,2013-11-27 01:20:00,
2013-11-26 19:25:00,76.8,73.6,29.93,NW,319,5.8,5.8,90,0.59,RA,,0.59,WeatherDisplay:10.37,2013-11-27 01:25:00,
2013-11-26 19:30:00,76.8,74.0,29.93,NW,317,6.9,6.9,91,0.59,RA,,0.60,WeatherDisplay:10.37,2013-11-27 01:30:00,
2013-11-26 19:35:00,76.9,74.1,29.93,NW,309,1.1,0.0,91,0.40,RA,,0.60,WeatherDisplay:10.37,2013-11-27 01:35:00,
2013-11-26 19:40:00,77.1,74.3,29.93,WNW,292,5.8,5.8,91,0.23,CLR,,0.60,WeatherDisplay:10.37,2013-11-27 01:40:00,
2013-11-26 19:45:00,77.1,74.3,29.94,NW,321,10.4,10.4,91,0.13,CLR,,0.60,WeatherDisplay:10.37,2013-11-27 01:45:00,
2013-11-26 19:50:00,77.2,74.4,29.94,NW,324,6.9,6.9,91,0.08,RA,,0.61,WeatherDisplay:10.37,2013-11-27 01:50:00,
2013-11-26 19:55:00,77.0,74.5,29.94,NNW,342,8.1,8.1,92,0.04,RA,,0.61,WeatherDisplay:10.37,2013-11-27 01:55:00,
2013-11-26 20:00:00,76.8,74.0,29.95,NW,322,6.0,6.0,91,0.04,,,0.61,WeatherDisplay:10.37,2013-11-27 02:00:00,
2013-11-26 20:05:00,76.8,74.3,29.95,NNW,340,8.1,8.1,92,0.03,CLR,,0.61,WeatherDisplay:10.37,2013-11-27 02:05:00,
2013-11-26 20:10:00,76.6,74.1,29.95,NW,319,9.2,9.2,92,0.03,CLR,,0.61,WeatherDisplay:10.37,2013-11-27 02:10:00,
2013-11-26 20:15:00,76.5,74.0,29.95,North,349,10.4,10.4,92,0.03,CLR,,0.61,WeatherDisplay:10.37,2013-11-27 02:15:00,
2013-11-26 20:20:00,76.5,74.0,29.95,NNW,330,9.2,9.2,92,0.02,CLR,,0.61,WeatherDisplay:10.37,2013-11-27 02:20:00,
2013-11-26 20:25:00,76.6,74.1,29.95,NNW,343,9.2,9.2,92,0.02,CLR,,0.61,WeatherDisplay:10.37,2013-11-27 02:25:00,
2013-11-26 20:30:00,76.6,74.1,29.95,NW,322,6.9,6.9,92,0.01,CLR,,0.61,WeatherDisplay:10.37,2013-11-27 02:30:00,
2013-11-26 20:35:00,76.6,74.1,29.95,NNW,331,6.9,6.9,92,0.01,CLR,,0.61,WeatherDisplay:10.37,2013-11-27 02:35:00,
2013-11-26 20:40:00,76.6,74.1,29.95,NNW,337,7.0,7.0,92,0.01,CLR,,0.61,WeatherDisplay:10.37,2013-11-27 02:40:00,
2013-11-26 20:45:00,76.6,74.1,29.95,NNW,335,4.6,4.6,92,0.01,CLR,,0.61,WeatherDisplay:10.37,2013-11-27 02:45:00,
2013-11-26 20:50:00,76.6,74.1,29.96,NW,318,3.5,3.5,92,0.00,CLR,,0.61,WeatherDisplay:10.37,2013-11-27 02:50:00,
2013-11-26 20:55:00,76.7,74.5,29.96,NNW,343,3.5,3.5,93,0.00,CLR,,0.61,WeatherDisplay:10.37,2013-11-27 02:55:00,
2013-11-26 21:00:00,76.6,74.4,29.96,NNW,331,3.5,3.5,93,0.00,CLR,,0.61,WeatherDisplay:10.37,2013-11-27 03:00:00,
2013-11-26 21:05:00,76.6,74.4,29.95,NNW,331,1.1,1.1,93,0.00,CLR,,0.61,WeatherDisplay:10.37,2013-11-27 03:05:00,
2013-11-26 21:10:00,76.7,74.5,29.95,NW,318,3.5,3.5,93,0.00,CLR,,0.61,WeatherDisplay:10.37,2013-11-27 03:10:00,
2013-11-26 21:15:00,76.7,74.5,29.95,NW,320,3.5,3.5,93,0.00,CLR,,0.61,WeatherDisplay:10.37,2013-11-27 03:15:00,
2013-11-26 21:20:00,76.8,74.6,29.96,NW,312,3.5,0.0,93,0.00,CLR,,0.61,WeatherDisplay:10.37,2013-11-27 03:20:00,
2013-11-26 21:25:00,76.7,74.5,29.96,NW,312,2.3,2.3,93,0.00,CLR,,0.61,WeatherDisplay:10.37,2013-11-27 03:25:00,
2013-11-26 21:30:00,76.8,74.6,29.96,NW,309,4.6,4.6,93,0.00,CLR,,0.61,WeatherDisplay:10.37,2013-11-27 03:30:00,
2013-11-26 21:35:00,76.7,74.5,29.96,NW,309,1.1,1.1,93,0.00,CLR,,0.61,WeatherDisplay:10.37,2013-11-27 03:35:00,
2013-11-26 21:40:00,76.8,74.6,29.97,NW,309,3.5,3.5,93,0.00,CLR,,0.61,WeatherDisplay:10.37,2013-11-27 03:40:00,
2013-11-26 21:45:00,76.8,74.6,29.97,NW,312,2.3,2.3,93,0.00,CLR,,0.61,WeatherDisplay:10.37,2013-11-27 03:45:00,
2013-11-26 21:50:00,76.9,74.7,29.97,NW,304,3.5,3.5,93,0.00,CLR,,0.61,WeatherDisplay:10.37,2013-11-27 03:50:00,
2013-11-26 21:55:00,76.9,74.7,29.97,NW,305,3.5,3.5,93,0.00,CLR,,0.61,WeatherDisplay:10.37,2013-11-27 03:55:00,
2013-11-26 22:00:00,76.9,74.7,29.97,NW,314,2.0,2.0,93,0.00,CLR,,0.61,WeatherDisplay:10.37,2013-11-27 04:00:00,
2013-11-26 22:05:00,77.1,74.9,29.97,NW,310,1.1,1.1,93,0.00,CLR,,0.61,WeatherDisplay:10.37,2013-11-27 04:05:00,
2013-11-26 22:10:00,77.2,75.0,29.97,NW,306,3.5,3.5,93,0.00,CLR,,0.61,WeatherDisplay:10.37,2013-11-27 04:10:00,
2013-11-26 22:15:00,77.1,74.9,29.97,NW,316,6.9,6.9,93,0.00,CLR,,0.61,WeatherDisplay:10.37,2013-11-27 04:15:00,
2013-11-26 22:20:00,77.0,74.8,29.97,WNW,302,6.9,6.9,93,0.00,CLR,,0.61,WeatherDisplay:10.37,2013-11-27 04:20:00,
2013-11-26 22:25:00,76.8,74.6,29.97,WNW,302,4.6,4.6,93,0.00,CLR,,0.61,WeatherDisplay:10.37,2013-11-27 04:25:00,
2013-11-26 22:30:00,76.7,74.5,29.97,West,270,6.9,6.9,93,0.00,CLR,,0.61,WeatherDisplay:10.37,2013-11-27 04:30:00,
2013-11-26 22:35:00,76.7,74.5,29.97,NW,312,6.9,6.9,93,0.00,CLR,,0.61,WeatherDisplay:10.37,2013-11-27 04:35:00,
2013-11-26 22:40:00,76.8,74.6,29.97,WNW,297,9.0,9.0,93,0.00,CLR,,0.61,WeatherDisplay:10.37,2013-11-27 04:40:00,
2013-11-26 22:45:00,76.9,74.7,29.97,NNW,336,5.8,5.8,93,0.00,CLR,,0.61,WeatherDisplay:10.37,2013-11-27 04:45:00,
2013-11-26 22:50:00,77.0,74.8,29.97,West,274,5.8,5.8,93,0.00,CLR,,0.61,WeatherDisplay:10.37,2013-11-27 04:50:00,
2013-11-26 22:55:00,76.9,74.7,29.97,NNW,327,9.0,9.0,93,0.00,CLR,,0.61,WeatherDisplay:10.37,2013-11-27 04:55:00,
2013-11-26 23:00:00,76.9,74.7,29.97,NW,317,6.0,6.0,93,0.00,CLR,,0.61,WeatherDisplay:10.37,2013-11-27 05:00:00,
2013-11-26 23:01:00,76.9,74.7,29.97,WNW,295,4.6,4.6,93,0.00,CLR,,0.61,WeatherDisplay:10.37,2013-11-27 05:01:00,
2013-11-26 23:02:00,76.9,74.7,29.97,WNW,293,9.2,9.2,93,0.00,CLR,,0.61,WeatherDisplay:10.37,2013-11-27 05:02:00,
2013-11-26 23:07:00,76.9,74.7,29.97,NW,318,9.2,9.2,93,0.00,CLR,,0.61,WeatherDisplay:10.37,2013-11-27 05:07:00,
2013-11-26 23:12:00,76.8,74.6,29.97,NW,313,8.0,8.0,93,0.00,CLR,,0.61,WeatherDisplay:10.37,2013-11-27 05:12:00,
2013-11-26 23:17:00,76.7,74.5,29.96,WNW,296,11.0,11.0,93,0.00,CLR,,0.61,WeatherDisplay:10.37,2013-11-27 05:17:00,
2013-11-26 23:22:00,76.6,74.4,29.96,WNW,285,11.5,11.5,93,0.00,CLR,,0.61,WeatherDisplay:10.37,2013-11-27 05:22:00,
2013-11-26 23:27:00,76.6,74.4,29.96,NNW,328,11.5,11.5,93,0.00,CLR,,0.61,WeatherDisplay:10.37,2013-11-27 05:27:00,
2013-11-26 23:32:00,76.7,74.5,29.96,WNW,303,10.4,10.4,93,0.01,RA,,0.62,WeatherDisplay:10.37,2013-11-27 05:32:00,
2013-11-26 23:37:00,76.7,74.2,29.96,NNW,335,12.7,12.7,92,0.01,RA,,0.62,WeatherDisplay:10.37,2013-11-27 05:37:00,
2013-11-26 23:42:00,76.9,74.4,29.95,NW,305,10.4,10.4,92,0.01,CLR,,0.62,WeatherDisplay:10.37,2013-11-27 05:42:00,
2013-11-26 23:47:00,76.9,74.4,29.95,NW,310,16.1,16.1,92,0.01,CLR,,0.62,WeatherDisplay:10.37,2013-11-27 05:47:00,
2013-11-26 23:52:00,76.9,74.4,29.95,NW,307,15.0,15.0,92,0.01,CLR,,0.62,WeatherDisplay:10.37,2013-11-27 05:52:00,
2013-11-26 23:57:00,76.7,74.2,29.95,West,279,16.1,16.1,92,0.01,CLR,,0.62,WeatherDisplay:10.37,2013-11-27 05:57:00,